This demonstration page uses our WeatherBlox Daily Observations layout. Learn more.

40.92945, -100.16068

Hourly Observations for April 11, 2018

Temp ( °F °C ) Dew Point ( °F °C ) Humidity (%) Winds ( mph kmh ) Pressure ( in mb ) Visibility ( mi km ) Precip ( " mm )
12:15 am 00:15 Clear 49 9.2 33 0.3 54 54 S 6 9 29.91 1013 10 16.0934 0 0
12:35 am 00:35 Clear 49 9.2 32 0 53 53 SSE 9 15 29.91 1013 10 16.0934 0 0
12:55 am 00:55 Clear 49 9.2 32 0 53 53 S 9 15 29.91 1013 10 16.0934 0 0
1:15 am 01:15 Clear 47 8.4 32 0 56 56 S 6 9 29.94 1014 10 16.0934 0 0
1:35 am 01:35 Clear 47 8.6 31 -0.3 54 54 S 9 15 29.94 1014 10 16.0934 0 0
1:55 am 01:55 Clear 52 11.1 31 -0.5 45 45 S 13 20 29.88 1012 10 16.0934 0 0
2:15 am 02:15 Clear 51 10.5 31 -0.5 47 47 S 12 19 29.88 1012 10 16.0934 0 0
2:35 am 02:35 Clear 51 10.6 31 -0.6 46 46 S 10 17 29.88 1012 10 16.0934 0 0
2:55 am 02:55 Clear 53 11.6 30 -1 42 42 S 9 15 29.85 1011 10 16.0934 0 0
3:15 am 03:15 Clear 50 10 31 -0.8 47 47 S 7 11 29.85 1011 10 16.0934 0 0
3:35 am 03:35 Clear 52 11.3 30 -1.1 42 42 S 14 22 29.83 1010 10 16.0934 0 0
3:55 am 03:55 Clear 51 10.7 30 -1.1 44 44 S 8 13 29.83 1010 10 16.0934 0 0
4:15 am 04:15 Clear 52 10.9 31 -0.6 45 45 S 8 13 29.83 1010 10 16.0934 0 0
4:35 am 04:35 Clear 52 10.9 31 -0.5 46 46 SSE 7 11 29.83 1010 10 16.0934 0 0
4:55 am 04:55 Clear 51 10.5 31 -0.5 47 47 S 8 13 29.83 1010 10 16.0934 0 0
5:15 am 05:15 Clear 50 9.8 31 -0.5 49 49 Calm 29.83 1010 10 16.0934 0 0
5:35 am 05:35 Clear 51 10.6 30 -1 45 45 SSE 6 9 29.8 1009 10 16.0934 0 0
5:55 am 05:55 Clear 49 9.6 30 -0.9 48 48 Calm 29.8 1009 10 16.0934 0 0
6:15 am 06:15 Clear 48 8.8 30 -0.9 51 51 SW 6 9 29.8 1009 10 16.0934 0 0
6:35 am 06:35 Clear 42 5.5 31 -0.5 66 66 Calm 29.83 1010 10 16.0934 0 0
6:55 am 06:55 Clear 42 5.5 31 -0.5 66 66 S 3 6 29.83 1010 10 16.0934 0 0
7:15 am 07:15 Sunny 43 5.9 31 -0.7 63 63 S 7 11 29.83 1010 10 16.0934 0 0
7:35 am 07:35 Sunny 45 7.3 32 0 60 60 SSW 7 11 29.83 1010 10 16.0934 0 0
7:55 am 07:55 Sunny 45 7.1 32 0 61 61 SSW 5 7 29.8 1009 10 16.0934 0 0
8:15 am 08:15 Sunny 46 8 33 0.7 60 60 SW 3 6 29.77 1008 10 16.0934 0 0
8:35 am 08:35 Sunny 48 9 35 1.4 59 59 Calm 29.77 1008 10 16.0934 0 0
8:55 am 08:55 Sunny 50 10.2 34 1.1 54 54 SSW 3 6 29.77 1008 10 16.0934 0 0
9:15 am 09:15 Sunny 54 12.1 34 1.3 48 48 Calm 29.74 1007 10 16.0934 0 0
9:35 am 09:35 Sunny 57 14.1 32 -0.2 38 38 W 5 7 29.71 1006 10 16.0934 0 0
9:55 am 09:55 Sunny 59 15.2 32 -0.1 35 35 W 6 9 29.71 1006 10 16.0934 0 0
10:15 am 10:15 Sunny 61 15.9 33 0.3 35 35 WNW 7 11 29.71 1006 10 16.0934 0 0
10:35 am 10:35 Sunny 61 16 33 0.5 35 35 WNW 7 11 29.71 1006 10 16.0934 0 0
10:55 am 10:55 Sunny 61 16 33 0.7 36 36 WNW 5 7 29.71 1006 10 16.0934 0 0
11:15 am 11:15 Partly Cloudy 61 16.1 33 0.8 36 36 WNW 7 11 29.71 1006 10 16.0934 0 0
11:35 am 11:35 Mostly Cloudy 62 16.6 33 0.5 34 34 W 6 9 29.71 1006 10 16.0934 0 0
11:55 am 11:55 Cloudy 64 17.5 33 0.6 32 32 W 6 9 29.68 1005 10 16.0934 0 0
12:15 pm 12:15 Partly Cloudy 64 18 33 0.4 31 31 W 6 9 29.68 1005 10 16.0934 0 0
12:35 pm 12:35 Sunny 66 19 33 0.8 30 30 W 6 9 29.65 1004 10 16.0934 0 0
12:55 pm 12:55 Sunny 68 19.9 33 0.6 28 28 Calm 29.65 1004 10 16.0934 0 0
1:15 pm 13:15 Sunny 70 21 33 0.4 25 25 WSW 3 6 29.62 1003 10 16.0934 0 0
1:35 pm 13:35 Sunny 71 21.6 33 0.7 25 25 Calm 29.59 1002 10 16.0934 0 0
1:55 pm 13:55 Sunny 73 22.9 32 0.1 22 22 Calm 29.59 1002 10 16.0934 0 0
2:15 pm 14:15 Sunny 74 23.5 33 0.3 22 22 Calm 29.59 1002 10 16.0934 0 0
2:35 pm 14:35 Sunny 76 24.4 33 0.5 21 21 Calm 29.56 1001 10 16.0934 0 0
2:55 pm 14:55 Sunny 77 25 33 0.7 20 20 Calm 29.56 1001 10 16.0934 0 0
3:15 pm 15:15 Sunny 79 26 33 0.6 19 19 Calm 29.56 1001 10 16.0934 0 0
3:35 pm 15:35 Sunny 78 25.8 34 1.2 20 20 Calm 29.53 1000 10 16.0934 0 0
3:55 pm 15:55 Sunny 80 26.4 32 0.2 18 18 SSW 5 7 29.53 1000 10 16.0934 0 0
4:15 pm 16:15 Sunny 82 27.5 32 0 17 17 W 13 20 29.5 999 10 16.0934 0 0
4:35 pm 16:35 Sunny 83 28.1 31 -0.5 15 15 WSW 9 15 29.5 999 10 16.0934 0 0
4:55 pm 16:55 Sunny 83 28.4 31 -0.5 15 15 WSW 12 19 29.5 999 10 16.0934 0 0
5:15 pm 17:15 Sunny 83 28.5 30 -0.9 15 15 WSW 15 24 29.47 998 10 16.0934 0 0
5:35 pm 17:35 Sunny 83 28.5 30 -1.3 14 14 SSW 15 24 29.47 998 10 16.0934 0 0
5:55 pm 17:55 Sunny 83 28.5 29 -1.6 14 14 SSW 16 26 29.47 998 10 16.0934 0 0
6:15 pm 18:15 Sunny 83 28.5 28 -2.2 13 13 SW 18 30 29.47 998 10 16.0934 0 0
6:35 pm 18:35 Sunny 83 28.2 27 -2.6 13 13 WSW 14 22 29.47 998 10 16.0934 0 0
6:55 pm 18:55 Sunny 82 27.7 29 -1.8 14 14 SW 12 19 29.47 998 10 16.0934 0 0
7:15 pm 19:15 Sunny 80 26.8 30 -1.3 16 16 SW 9 15 29.47 998 10 16.0934 0 0
7:35 pm 19:35 Sunny 79 26.2 29 -1.9 16 16 WSW 8 13 29.5 999 10 16.0934 0 0
7:55 pm 19:55 Sunny 74 23.3 31 -0.6 20 20 SSW 5 7 29.5 999 10 16.0934 0 0
8:15 pm 20:15 Clear 71 21.8 35 1.4 26 26 S 15 24 29.53 1000 10 16.0934 0 0
8:35 pm 20:35 Clear 70 21 34 1.2 27 27 SSW 10 17 29.53 1000 10 16.0934 0 0
8:55 pm 20:55 Clear 71 21.5 33 0.6 25 25 SW 10 17 29.53 1000 10 16.0934 0 0
9:15 pm 21:15 Clear 68 19.8 33 0.5 28 28 SSW 10 17 29.59 1002 10 16.0934 0 0
9:35 pm 21:35 Clear 69 20.4 33 0.5 27 27 WSW 7 11 29.59 1002 10 16.0934 0 0
9:55 pm 21:55 Clear 64 17.5 33 0.6 32 32 Calm 29.62 1003 10 16.0934 0 0
10:15 pm 22:15 Clear 67 19.3 31 -0.3 27 27 NNE 12 19 29.62 1003 10 16.0934 0 0
10:35 pm 22:35 Clear 63 17.4 32 0.2 31 31 NE 10 17 29.62 1003 10 16.0934 0 0
10:55 pm 22:55 Clear 64 17.7 32 0 30 30 NNE 13 20 29.62 1003 10 16.0934 0 0
11:15 pm 23:15 Clear 62 16.6 33 0.7 34 34 NNE 13 20 29.65 1004 10 16.0934 0 0
11:35 pm 23:35 Clear 58 14.5 36 2 43 43 E 7 11 29.65 1004 10 16.0934 0 0
11:55 pm 23:55 Clear 56 13.5 36 2 46 46 ENE 9 15 29.65 1004 10 16.0934 0 0

Powered by AerisWeather